Greenville Downtown, SC

10:12 PM EST on November 23, 2017 (GMT -0500)
Greenville Downtown

Weather History for KGMU - November, 2013

Change the Weather History Date:

Thursday, November 7, 2013

  Actual Average Record
Temperature  
Mean Temperature 60 °F -  
Max Temperature 72 °F 62 °F 77 °F (2005)
Min Temperature 46 °F 44 °F 30 °F (2010)
Degree Days  
Heating Degree Days 5    
Growing Degree Days 10 (Base 50)    
Moisture  
Dew Point 47 °F    
Average Humidity 72    
Maximum Humidity 94    
Minimum Humidity 37    
Precipitation  
Precipitation 0.01 in - - ()
Sea Level Pressure  
Sea Level Pressure 30.06 in    
Wind  
Wind Speed 4 mph (NNW)    
Max Wind Speed 17 mph    
Max Gust Speed 29 mph    
Visibility 9 miles    
Events Rain    
Averages and records for this station are not official NWS values.
T = Trace of Precipitation, MM = Missing Value Source: NWS Daily Summary

Daily Weather History Graph

Daily Weather History Graph

Search for Another Location

Airport or City:

Trip Planner

Search our weather history database for the weather conditions in past years. The results will help you decide how hot, cold, wet, or windy it might be!

Date:

Astronomy

Nov. 07, 2013 Rise Set
Actual Time 6:56 AM EST 5:29 PM EST
Civil Twilight 6:29 AM EST 5:56 PM EST
Nautical Twilight 5:59 AM EST 6:26 PM EST
Astronomical Twilight 5:29 AM EST 6:55 PM EST
Moon 11:01 AM EST (11/7) 9:41 PM EST (11/7)
Length of Visible Light 11h 26m
Length of Day
10h 33m
Waxing Crescent, 22% of the Moon is Illuminated
Nov 7
Waxing Crescent
Nov 10
First Quarter
Nov 17
Full
Nov 25
Last Quarter
Dec 2
New

Hourly Weather History & Observations

Time (EST) Temp. Dew Point Humidity Pressure Visibility Wind Dir Wind Speed Gust Speed Precip Events Conditions
12:53 AM 57.9 °F 52.0 °F 81% 30.12 in 10.0 mi Calm Calm - N/A   Mostly Cloudy
1:53 AM 55.9 °F 51.1 °F 84% 30.10 in 10.0 mi Calm Calm - N/A   Scattered Clouds
2:53 AM 54.0 °F 50.0 °F 86% 30.07 in 10.0 mi Calm Calm - N/A   Clear
3:53 AM 53.1 °F 48.9 °F 86% 30.05 in 10.0 mi Calm Calm - N/A   Clear
4:53 AM 53.1 °F 50.0 °F 89% 30.05 in 10.0 mi Calm Calm - N/A   Overcast
5:53 AM 54.0 °F 51.1 °F 90% 30.04 in 10.0 mi Calm Calm - N/A   Overcast
6:53 AM 55.0 °F 51.1 °F 86% 30.04 in 10.0 mi Calm Calm - N/A   Overcast
7:53 AM 57.9 °F 53.1 °F 84% 30.04 in 10.0 mi Calm Calm - N/A   Overcast
8:02 AM 57.2 °F 51.8 °F 82% 30.05 in 10.0 mi Calm Calm - N/A   Overcast
8:28 AM 57.2 °F 53.6 °F 88% 30.06 in 2.5 mi WNW 4.6 mph - 0.01 in Rain Light Rain
8:34 AM 57.2 °F 53.6 °F 88% 30.05 in 2.5 mi Calm Calm - 0.01 in Rain Light Rain
8:41 AM 57.2 °F 53.6 °F 88% 30.05 in 2.5 mi West 3.5 mph - 0.01 in Rain Light Rain
8:53 AM 57.0 °F 55.0 °F 93% 30.04 in 4.0 mi Calm Calm - 0.01 in Rain Light Rain
9:22 AM 57.2 °F 55.4 °F 94% 30.04 in 7.0 mi SSW 3.5 mph - 0.00 in   Overcast
9:51 AM 60.8 °F 57.2 °F 88% 30.03 in 9.0 mi WSW 4.6 mph - 0.00 in   Mostly Cloudy
9:53 AM 60.1 °F 57.0 °F 90% 30.02 in 9.0 mi WSW 4.6 mph - 0.00 in   Mostly Cloudy
10:21 AM 60.8 °F 57.2 °F 88% 30.03 in 10.0 mi West 6.9 mph - N/A   Overcast
10:53 AM 61.0 °F 57.0 °F 87% 30.02 in 10.0 mi West 6.9 mph - N/A   Overcast
11:53 AM 63.0 °F 57.9 °F 84% 30.03 in 10.0 mi Variable 5.8 mph - N/A   Overcast
12:15 PM 66.2 °F 57.2 °F 73% 30.03 in 10.0 mi Variable 4.6 mph - N/A   Mostly Cloudy
12:53 PM 66.9 °F 55.9 °F 68% 30.00 in 10.0 mi Calm Calm - N/A   Partly Cloudy
1:53 PM 72.0 °F 53.1 °F 51% 29.99 in 10.0 mi North 8.1 mph - N/A   Mostly Cloudy
2:53 PM 69.1 °F 46.9 °F 45% 29.99 in 10.0 mi North 15.0 mph - N/A   Partly Cloudy
3:53 PM 68.0 °F 41.0 °F 37% 30.00 in 10.0 mi NNE 13.8 mph - N/A   Clear
4:53 PM 61.0 °F 35.1 °F 38% 30.03 in 10.0 mi North 13.8 mph - N/A   Clear
5:53 PM 55.9 °F 30.0 °F 37% 30.07 in 10.0 mi North 12.7 mph 20.7 mph N/A   Clear
6:53 PM 52.0 °F 30.9 °F 45% 30.10 in 10.0 mi North 12.7 mph - N/A   Clear
7:53 PM 51.1 °F 30.0 °F 44% 30.12 in 10.0 mi North 16.1 mph 25.3 mph N/A   Clear
8:53 PM 50.0 °F 30.0 °F 46% 30.13 in 10.0 mi North 17.3 mph 28.8 mph N/A   Clear
9:53 PM 48.9 °F 30.9 °F 50% 30.14 in 10.0 mi North 17.3 mph 21.9 mph N/A   Clear
10:53 PM 48.9 °F 30.9 °F 50% 30.15 in 10.0 mi North 13.8 mph 24.2 mph N/A   Clear
11:53 PM 46.9 °F 30.0 °F 52% 30.16 in 10.0 mi North 12.7 mph - N/A   Clear